Terminal Aerodrome Forecast
Issued by NWS

Home | Current Version | Previous Version | Text Only | Print | Product List | Glossary On
Versions: 1 2 3 4 5 6 7 8 9 10 11 12 13 14 15 16 17 18
000
FTUS43 KIND 231400 AAB
TAFHUF
TAF AMD
KHUF 231428Z 2314/2412 20004KT 4SM -RA BR VCSH SCT008 OVC030
     FM231600 36010KT P6SM BKN040
     FM231900 36010KT P6SM SCT040 BKN250=

USA.gov is the U.S. government's official web portal to all federal, state and local government web resources and services.